STARLINK-1979 (47577 NORAD) Tracking and Keplerian Element Data

This shows tracking and keplerian element data for the satellite.

Feedback or suggestion? Click here.




ElementValue
Catalog47577
NameSTARLINK-1979
Epoch Orbit407
Epoch Day57.16667824
Epoch Year2021
RAAN16.4068
Inclination53.0511
Eccentricity0.0001099
Argument of Perigee66.2051
Mean Anonmoly274.2197
Mean Motion15.62744237
Decay Rate-0.00059241
L11 47577U 21009AF 21057.16667824 -.00059241 00000-0 -64611-3 0 9991
L22 47577 53.0511 16.4068 0001099 66.2051 274.2197 15.62744237 4075

Live tracking and technical data element details for STARLINK-1979 (NORAD 47577). STARLINK-1979 can be tracked NOW for your location showing map with azimuth and elevation plus other details from your city location.

Track the satellite on the map from your city or location and see movement details for azimuth, elevation, latitude, longitude, range, height, and movement on the map or in text.







IsCatalogInMostPopularTable: catalog: 47577, numindb: 1
Update: records affected: 1



GetName: 47577 STARLINK-1979

Hit Count: updated at: Fri, 26 Feb 2021 10:05:41 GMT